Regional Weather Roundup
Issued by NWS

Current Version | Previous Version | Text Only | Print | Product List | Glossary On
Versions: 1 2 3 4 5 6 7 8 9 10 11 12 13 14 15 16 17 18 19 20 21 22 23 24 25 26 27 28 29 30 31 32 33 34 35 36 37 38 39 40 41 42 43 44 45 46 47 48 49 50
000
ASUS44 KBMX 301410
RWRAL

ALABAMA REGIONAL WEATHER ROUNDUP
NATIONAL WEATHER SERVICE BIRMINGHAM AL
900 AM CDT TUE SEP 30 2014

NOTE: "FAIR" INDICATES FEW OR NO CLOUDS BELOW 12,000 FEET
WITH NO SIGNIFICANT WEATHER AND/OR OBSTRUCTIONS TO VISIBILITY.

THE REMARK "TC" DENOTES TEMPERATURE IN DEGREES CELSIUS.

ALZ001>011-014-016>018-020-301500-
NORTH ALABAMA

CITY           SKY/WX    TMP DP  RH WIND       PRES   REMARKS
MUSCLE SHOALS  SUNNY     69  63  81 CALM      29.99S
HUNTSVILLE     CLOUDY    68  64  87 CALM      29.99S FOG
DECATUR        FOG       65  64  97 E3        29.99S VSB 1/2
HALEYVILLE     FAIR      71  65  81 CALM      30.01S
GADSDEN        CLOUDY    68  61  77 E3        29.99S
$$

ALZ012-013-022-023-030>036-040>044-301500-
WEST CENTRAL ALABAMA

CITY           SKY/WX    TMP DP  RH WIND       PRES   REMARKS
TUSCALOOSA     PTSUNNY   72  64  76 CALM      29.97F
$$

ALZ015-024>027-033>036-040>044-301500-
CENTRAL ALABAMA

CITY           SKY/WX    TMP DP  RH WIND       PRES   REMARKS
BIRMINGHAM     PTSUNNY   68  63  84 E6        30.00S
MONTGOMERY     CLOUDY    72  66  81 E7        29.96S
SHELBY CO ARPT PTSUNNY   68  64  87 CALM      29.98S
MAXWELL AFB    CLOUDY    72  67  82 NE6       29.96R
GREENVILLE     CLOUDY    71  66  84 NE5       29.95S
$$

ALZ019-021-028-029-037-038-045>048-301500-
EAST CENTRAL ALABAMA

CITY           SKY/WX    TMP DP  RH WIND       PRES   REMARKS
ANNISTON       CLOUDY    70  63  78 E6        29.98S
ALEXANDER CITY CLOUDY    74  69  85 CALM      29.98S
AUBURN         CLOUDY    66  64  94 E6        30.00S
$$

ALZ051>064-301500-
SOUTHWEST ALABAMA

CITY           SKY/WX    TMP DP  RH WIND       PRES   REMARKS
MOBILE         CLOUDY    69  69 100 NE7       29.93S FOG
BROOKLEY FIELD CLOUDY    71  70  96 NE7       29.94S
EVERGREEN      CLOUDY    73  69  87 NE6       29.95R
$$

ALZ049-050-065>069-301500-
SOUTHEAST ALABAMA

CITY           SKY/WX    TMP DP  RH WIND       PRES   REMARKS
DOTHAN         CLOUDY    70  66  88 NE6       29.97R
OZARK          CLOUDY    71  66  82 NE8       29.93R
TROY           CLOUDY    71  66  84 NE7       29.96S
EUFAULA        PTSUNNY   75  66  73 E7        29.93S
$$


USA.gov is the U.S. government's official web portal to all federal, state and local government web resources and services.